This is the latest recevied weather packets stored in our database for station/object AA4XD. If no packets are shown the sender has not sent any weather packets the latest 10 day(s).
| Time | Temp. | Humidity | Pressure | Rain* | Wind** | Luminosity | Snow |
|---|---|---|---|---|---|---|---|
| 1778028696 | 22.22° C | 65% | 1014.1 hPa | 0 mm | - | 0 W/m² | - |
| 1778028392 | 22.78° C | 63% | 1014 hPa | 0 mm | - | 0 W/m² | - |
| 1778028090 | 22.78° C | 63% | 1014.2 hPa | 0 mm | - | 0 W/m² | - |
| 1778027786 | 22.78° C | 62% | 1013.9 hPa | 0 mm | - | 0 W/m² | - |
| 1778027482 | 23.33° C | 61% | 1013.9 hPa | 0 mm | - | 0 W/m² | - |
| 1778027178 | 23.33° C | 60% | 1014 hPa | 0 mm | - | 0 W/m² | - |
| 1778026874 | 23.89° C | 59% | 1014 hPa | 0 mm | - | 0 W/m² | - |
| 1778026571 | 23.89° C | 57% | 1014 hPa | 0 mm | - | 1 W/m² | - |
| 1778026268 | 24.44° C | 56% | 1013.8 hPa | 0 mm | - | 2 W/m² | - |
| 1778025966 | 25° C | 55% | 1013.9 hPa | 0 mm | - | 5 W/m² | - |
| 1778025663 | 25° C | 55% | 1013.8 hPa | 0 mm | - | 9 W/m² | - |
| 1778025361 | 25.56° C | 54% | 1013.6 hPa | 0 mm | - | 14 W/m² | - |
| 1778025058 | 25.56° C | 55% | 1013.4 hPa | 0 mm | - | 18 W/m² | - |
| 1778024754 | 26.11° C | 54% | 1013.5 hPa | 0 mm | - | 24 W/m² | - |
| 1778024451 | 26.11° C | 53% | 1013.4 hPa | 0 mm | - | 27 W/m² | - |
| 1778024149 | 26.67° C | 53% | 1013.4 hPa | 0 mm | - | 30 W/m² | - |
| 1778023846 | 26.67° C | 52% | 1013.3 hPa | 0 mm | - | 34 W/m² | - |
| 1778023544 | 26.67° C | 52% | 1013.2 hPa | 0 mm | - | 38 W/m² | - |
| 1778023241 | 27.22° C | 51% | 1013.3 hPa | 0 mm | - | 42 W/m² | - |
| 1778022937 | 27.22° C | 50% | 1013.3 hPa | 0 mm | - | 45 W/m² | - |
| 1778022636 | 27.78° C | 49% | 1013.3 hPa | 0 mm | - | 50 W/m² | - |
| 1778022333 | 27.78° C | 49% | 1013.4 hPa | 0 mm | - | 56 W/m² | - |
| 1778022030 | 28.33° C | 47% | 1013.5 hPa | 0 mm | - | 59 W/m² | - |
| 1778021727 | 28.33° C | 46% | 1013.2 hPa | 0 mm | - | 65 W/m² | - |
| 1778021423 | 28.33° C | 46% | 1013.4 hPa | 0 mm | - | 77 W/m² | - |
* Rain latest hour (hover to see other rain measurements)
** Current wind speed in m/s (hover to see current wind gust speed)